Location: Poprad
(49.0500°N, 20.3000°E)
Time: 22:01:41
(UTC+02:00)

ISS - Pass Details

Date: 01 April 2019
Orbit: 408 x 410 km, 51.6° (Epoch: 22 April)

Event Time Altitude Azimuth Distance (km) Brightness Sun altitude
Rises 21:47:31 0° 290° (WNW) 2,338 1.2 -24.2°
Reaches altitude 10° 21:49:39 10° 284° (WNW) 1,474 -0.2 -24.5°
Enters shadow 21:51:18 25° 269° (W) 867 -1.8 -24.7°
